Location: Hac?musa Deresi
(39.1694°N, 32.2508°E)
Time: 23:48:54
(UTC+00:00)

ATLAS 2AS CENTAUR R/B - Pass Details

Date: 22 April 2026
Orbit: 1052 x 1158 km, 63.7° (Epoch: 9 May)

Event Time Altitude Azimuth Distance (km) Brightness Sun altitude
Exits shadow 21:38:07 47° 350° (N) 1,402 3.5 -38.3°
Drops below altitude 10° 21:43:19 10° 26° (NNE) 2,897 5.5 -38.4°
Sets 21:46:01 0° 31° (NNE) 3,845 6.3 -38.4°
